Year,Month,Day,Hour,Minute,Value (Times are PST for temperature in C)
2012,04,11,11,08,9.20
2012,04,11,11,09,9.20
2012,04,11,11,10,9.20
2012,04,11,11,11,9.20
2012,04,11,11,12,9.20
2012,04,11,11,13,9.20
2012,04,11,11,14,9.30
2012,04,11,11,15,9.30
2012,04,11,11,16,9.30
2012,04,11,11,17,9.40
2012,04,11,11,18,9.40
2012,04,11,11,19,9.40
2012,04,11,11,20,9.50
2012,04,11,11,21,9.50
2012,04,11,11,22,9.50
2012,04,11,11,23,9.60
2012,04,11,11,24,9.50
2012,04,11,11,25,9.50
2012,04,11,11,26,9.50
2012,04,11,11,27,9.50
2012,04,11,11,28,9.50
2012,04,11,11,29,9.50
2012,04,11,11,30,9.50
2012,04,11,11,31,9.50
2012,04,11,11,32,9.50
2012,04,11,11,33,9.50
2012,04,11,11,34,9.50
2012,04,11,11,35,9.50
2012,04,11,11,36,9.60
2012,04,11,11,37,9.60
2012,04,11,11,38,9.60
2012,04,11,11,39,9.60
2012,04,11,11,40,9.60
2012,04,11,11,41,9.60
2012,04,11,11,42,9.60
2012,04,11,11,43,9.70
2012,04,11,11,44,9.70
2012,04,11,11,45,9.70
2012,04,11,11,46,9.80
2012,04,11,11,47,9.80
2012,04,11,11,48,9.80
2012,04,11,11,49,9.80
2012,04,11,11,50,9.80
2012,04,11,11,51,9.80
2012,04,11,11,52,9.80
2012,04,11,11,53,9.80
2012,04,11,11,54,9.80
2012,04,11,11,55,9.80
2012,04,11,11,56,9.80
2012,04,11,11,57,9.80
2012,04,11,11,58,9.80
2012,04,11,13,40,8.90
2012,04,11,13,41,8.90
2012,04,11,13,42,8.90
2012,04,11,13,43,8.90
2012,04,11,13,44,8.90
2012,04,11,13,45,8.90
2012,04,11,13,46,8.90
2012,04,11,13,47,8.90
2012,04,11,13,48,8.90
2012,04,11,13,49,8.90
2012,04,11,13,50,8.90
2012,04,11,13,51,8.90
2012,04,11,13,52,8.90
2012,04,11,13,53,8.90
2012,04,11,13,54,8.90
2012,04,11,13,55,8.90
2012,04,11,13,56,8.90
2012,04,11,13,57,8.80
2012,04,11,13,58,8.80
2012,04,11,13,59,8.80
2012,04,11,14,00,8.80
2012,04,11,14,01,8.80
2012,04,11,14,02,8.80
2012,04,11,14,03,8.80
2012,04,11,14,04,8.80
2012,04,11,14,05,8.80
2012,04,11,14,06,8.90
2012,04,11,14,07,8.90
2012,04,11,14,08,8.90
2012,04,11,14,09,8.90
2012,04,11,14,10,8.90
2012,04,11,14,11,8.90
2012,04,11,14,12,8.90
2012,04,11,14,13,8.90
2012,04,11,14,14,8.90
2012,04,11,14,15,8.90
2012,04,11,14,16,8.90
2012,04,11,14,17,8.90
2012,04,11,14,18,9.00
2012,04,11,14,19,9.00
2012,04,11,14,20,9.00
2012,04,11,14,21,9.00
2012,04,11,14,22,9.00
2012,04,11,14,23,9.00
2012,04,11,14,24,9.00
2012,04,11,14,25,9.00
2012,04,11,14,26,9.00
2012,04,11,14,27,9.00
2012,04,11,14,28,9.00
2012,04,11,14,29,9.10
2012,04,11,14,30,9.10
2012,04,11,14,31,9.10
2012,04,11,14,32,9.10
2012,04,11,14,33,9.10
2012,04,11,14,34,9.10
2012,04,11,14,35,9.10
2012,04,11,14,36,9.10
2012,04,11,14,37,9.10
2012,04,11,14,38,9.10
2012,04,11,14,39,9.10
2012,04,11,14,40,9.10
2012,04,11,14,41,9.10
2012,04,11,16,05,9.90
2012,04,11,16,06,9.90
2012,04,11,16,07,9.90
2012,04,11,16,08,9.90
2012,04,11,16,09,9.90
2012,04,11,16,10,10.00
2012,04,11,16,11,9.90
2012,04,11,16,12,9.90
2012,04,11,16,13,9.90
2012,04,11,16,14,9.80
2012,04,11,16,15,9.70
2012,04,11,16,16,9.70
2012,04,11,16,17,9.70
2012,04,11,16,18,9.70
2012,04,11,16,19,9.70
2012,04,11,16,20,9.70
2012,04,11,16,21,9.70
2012,04,11,16,22,9.70
2012,04,11,16,23,9.70
2012,04,11,16,24,9.70
2012,04,11,16,25,9.70
2012,04,11,16,26,9.70
2012,04,11,16,27,9.60
2012,04,11,16,28,9.70
2012,04,11,16,29,9.70
2012,04,11,16,30,9.70
2012,04,11,16,31,9.70
2012,04,11,16,32,9.70
2012,04,11,16,33,9.70
2012,04,11,16,34,9.70
2012,04,11,16,35,9.70
2012,04,11,16,36,9.70
2012,04,11,16,37,9.70
2012,04,11,16,38,9.70
2012,04,11,16,39,9.70
2012,04,11,16,40,9.70
2012,04,11,16,41,9.70
2012,04,11,16,42,9.70
2012,04,11,16,43,9.70
2012,04,11,16,44,9.70
2012,04,11,16,45,9.70
2012,04,11,16,46,9.70
2012,04,11,16,47,9.70
